Location: Mapua
(41.2500°S, 173.1000°E)
Time: 01:26:29
(UTC+13:00)

Envisat - Visible Passes

Search period start: 22 October 2017 00:00
Search period end: 01 November 2017 00:00
Orbit: 764 x 766 km, 98.2° (Epoch: 21 October)

Date Brightness Start Highest point End Pass type
(mag) Time Alt. Az. Time Alt. Az. Time Alt. Az.
22 Oct 2.9 21:52:19 10° SSE 21:57:28 64° E 21:59:12 40° NNE visible
22 Oct 5.6 23:32:44 10° SSW 23:35:55 17° WSW 23:39:05 10° W visible
23 Oct 3.9 21:16:08 10° SE 21:20:35 29° E 21:22:13 24° NE visible
23 Oct 4.5 22:54:58 10° S 22:59:36 34° WSW 23:02:26 20° WNW visible
24 Oct 4.7 20:41:13 10° ESE 20:43:30 13° E 20:45:13 11° ENE visible
24 Oct 3.1 22:17:54 10° S 22:23:04 74° WSW 22:25:26 32° NNW visible
25 Oct 3.2 21:41:18 10° SSE 21:46:20 50° E 21:48:26 31° NNE visible
25 Oct 5.3 23:21:12 10° SSW 23:24:56 21° WSW 23:28:39 10° WNW visible
26 Oct 4.2 21:05:20 10° SE 21:09:24 23° E 21:11:26 18° NE visible
26 Oct 4.1 22:43:43 10° S 22:48:34 42° WSW 22:51:39 20° NW visible
27 Oct 2.9 22:06:46 10° SSE 22:11:58 88° E 22:14:38 29° NNW visible
27 Oct 5.8 23:48:10 10° SW 23:50:12 12° WSW 23:52:13 10° W visible
28 Oct 3.5 21:30:20 10° SSE 21:35:10 40° E 21:37:38 24° NNE visible
28 Oct 5.0 23:09:47 10° SSW 23:13:57 25° WSW 23:17:51 11° WNW visible
29 Oct 4.4 20:54:41 10° SE 20:58:11 18° E 21:00:38 13° NE visible
29 Oct 3.7 22:32:29 10° S 22:37:31 53° WSW 22:40:51 20° NW visible
30 Oct 2.9 21:55:42 10° SSE 22:00:51 71° ENE 22:03:50 25° N visible
30 Oct 5.7 23:36:19 10° SSW 23:39:15 15° WSW 23:42:10 10° W visible
31 Oct 3.8 21:19:25 10° SSE 21:24:00 31° E 21:26:51 19° NE visible
31 Oct 4.7 22:58:27 10° S 23:02:57 31° WSW 23:07:03 12° NW visible
